White Mountain, AK

6:29 AM AKST on January 20, 2017 (GMT -0900)
Golovin

Weather History for PAGL - February, 2013

Change the Weather History Date:

Thursday, February 28, 2013

  Actual Average Record
Temperature  
Mean Temperature 1 °F -  
Max Temperature 6 °F - - ()
Min Temperature -4 °F - - ()
Degree Days  
Heating Degree Days 64    
Moisture  
Dew Point -8 °F    
Average Humidity 69    
Maximum Humidity 100    
Minimum Humidity 32    
Precipitation  
Precipitation 0.00 in - - ()
Sea Level Pressure  
Sea Level Pressure 29.56 in    
Wind  
Wind Speed 8 mph (NW)    
Max Wind Speed 13 mph    
Max Gust Speed -    
Visibility 10 miles    
Events      
Averages and records for this station are not official NWS values.
T = Trace of Precipitation, MM = Missing Value Source: NWS Daily Summary

Daily Weather History Graph

Daily Weather History Graph

Search for Another Location

Airport or City:

Trip Planner

Search our weather history database for the weather conditions in past years. The results will help you decide how hot, cold, wet, or windy it might be!

Date:

Astronomy

Feb. 28, 2013 Rise Set
Actual Time 9:02 AM AKST 7:08 PM AKST
Civil Twilight 8:13 AM AKST 7:57 PM AKST
Nautical Twilight 7:17 AM AKST 8:53 PM AKST
Astronomical Twilight 6:20 AM AKST 9:51 PM AKST
Moon No Moon Rise 8:53 AM AKST (2/28)
Length of Visible Light 11h 43m
Length of Day
10h 05m
Waning Gibbous, 90% of the Moon is Illuminated
Feb 28
Waning Gibbous
Mar 4
Last Quarter
Mar 11
New
Mar 19
First Quarter
Mar 27
Full

Hourly Weather History & Observations

Time (AKST) Temp. Windchill Dew Point Humidity Pressure Visibility Wind Dir Wind Speed Gust Speed Precip Events Conditions
12:16 AM -2.2 °F -18.9 °F -2.2 °F 100% 29.40 in 10.0 mi NW 10.4 mph - N/A   Clear
12:36 AM -0.4 °F -18.4 °F -11.2 °F 60% 29.39 in 10.0 mi NW 12.7 mph - N/A   Clear
12:56 AM -0.4 °F -15.7 °F -5.8 °F 78% 29.40 in 10.0 mi NW 9.2 mph - N/A   Clear
1:16 AM -2.2 °F -18.0 °F -2.2 °F 100% 29.40 in 10.0 mi NW 9.2 mph - N/A   Clear
1:36 AM -2.2 °F -18.0 °F -16.6 °F 50% 29.40 in 10.0 mi NW 9.2 mph - N/A   Clear
1:56 AM -2.2 °F -16.8 °F -2.2 °F 100% 29.40 in 10.0 mi WNW 8.1 mph - N/A   Clear
2:16 AM -2.2 °F -18.0 °F -2.2 °F 100% 29.41 in 10.0 mi NW 9.2 mph - N/A   Clear
2:36 AM -2.2 °F -18.0 °F -18.4 °F 46% 29.41 in 10.0 mi NW 9.2 mph - N/A   Clear
2:56 AM -2.2 °F -16.8 °F -2.2 °F 100% 29.42 in 10.0 mi NW 8.1 mph - N/A   Clear
3:16 AM -2.2 °F -14.2 °F -7.6 °F 78% 29.42 in 10.0 mi NW 5.8 mph - N/A   Clear
3:36 AM -2.2 °F -15.6 °F -20.2 °F 42% 29.42 in 10.0 mi WNW 6.9 mph - N/A   Clear
3:56 AM -4.0 °F -17.8 °F - N/A% 29.42 in 10.0 mi NW 6.9 mph - N/A   Clear
4:16 AM -2.2 °F -15.6 °F -11.2 °F 66% 29.43 in 10.0 mi NW 6.9 mph - N/A   Scattered Clouds
4:36 AM -2.2 °F -15.6 °F -16.6 °F 50% 29.43 in 10.0 mi NW 6.9 mph - N/A   Scattered Clouds
4:56 AM -2.2 °F -18.9 °F - N/A% 29.43 in 10.0 mi NW 10.4 mph - N/A   Scattered Clouds
5:16 AM -2.2 °F -16.8 °F -16.6 °F 50% 29.44 in 10.0 mi NNW 8.1 mph - N/A   Overcast
5:36 AM -2.2 °F -18.0 °F -13.0 °F 60% 29.44 in 10.0 mi NNW 9.2 mph - N/A   Overcast
5:56 AM -2.2 °F -18.0 °F - N/A% 29.45 in 10.0 mi NNW 9.2 mph - N/A   Overcast
6:16 AM -2.2 °F -16.8 °F -18.4 °F 46% 29.45 in 10.0 mi NNW 8.1 mph - N/A   Overcast
6:36 AM -0.4 °F -12.0 °F -9.4 °F 66% 29.45 in 10.0 mi NW 5.8 mph - N/A   Overcast
6:56 AM -0.4 °F -14.7 °F -0.4 °F 100% 29.46 in 10.0 mi NW 8.1 mph - N/A   Overcast
7:16 AM -0.4 °F -14.7 °F -16.6 °F 46% 29.46 in 10.0 mi NW 8.1 mph - N/A   Overcast
7:36 AM -0.4 °F -15.7 °F -9.4 °F 66% 29.47 in 10.0 mi NW 9.2 mph - N/A   Overcast
7:56 AM -0.4 °F -13.4 °F -0.4 °F 100% 29.47 in 10.0 mi NNW 6.9 mph - N/A   Overcast
8:16 AM -0.4 °F -14.7 °F -14.8 °F 51% 29.47 in 10.0 mi NNW 8.1 mph - N/A   Overcast
8:36 AM 1.4 °F -9.9 °F -9.4 °F 61% 29.48 in 10.0 mi NNW 5.8 mph - N/A   Overcast
8:56 AM -0.4 °F -16.7 °F - N/A% 29.49 in 10.0 mi WNW 10.4 mph - N/A   Overcast
9:16 AM -0.4 °F -15.7 °F -11.2 °F 60% 29.49 in 10.0 mi NW 9.2 mph - N/A   Overcast
9:36 AM -0.4 °F -13.4 °F -13.0 °F 55% 29.50 in 10.0 mi NW 6.9 mph - N/A   Overcast
9:56 AM -0.4 °F -13.4 °F - N/A% 29.51 in 10.0 mi NNW 6.9 mph - N/A   Overcast
10:16 AM -0.4 °F -14.7 °F -7.6 °F 72% 29.51 in 10.0 mi North 8.1 mph - N/A   Overcast
10:56 AM 1.4 °F -15.3 °F 1.4 °F 100% 29.52 in 10.0 mi WNW 11.5 mph - N/A   Overcast
11:16 AM -0.4 °F -16.7 °F -5.8 °F 78% 29.52 in 10.0 mi NW 10.4 mph - N/A   Overcast
11:36 AM 1.4 °F -12.5 °F -16.6 °F 43% 29.53 in 10.0 mi NW 8.1 mph - N/A   Overcast
11:56 AM 1.4 °F -8.3 °F -0.4 °F 92% 29.54 in 10.0 mi NW 4.6 mph - N/A   Overcast
12:16 PM 1.4 °F -9.9 °F 1.4 °F 100% 29.55 in 10.0 mi WNW 5.8 mph - N/A   Overcast
12:36 PM 1.4 °F -9.9 °F -14.8 °F 47% 29.56 in 10.0 mi NW 5.8 mph - N/A   Overcast
12:56 PM 1.4 °F -12.5 °F -7.6 °F 66% 29.56 in 10.0 mi NW 8.1 mph - N/A   Mostly Cloudy
1:16 PM 1.4 °F -9.9 °F - N/A% 29.56 in 10.0 mi NNW 5.8 mph - N/A   Scattered Clouds
1:36 PM 3.2 °F -7.8 °F -11.2 °F 51% 29.57 in 10.0 mi NW 5.8 mph - N/A   Scattered Clouds
1:56 PM 3.2 °F -7.8 °F -13.0 °F 47% 29.57 in 10.0 mi NW 5.8 mph - N/A   Scattered Clouds
2:16 PM 3.2 °F -6.2 °F 3.2 °F 100% 29.57 in 10.0 mi NW 4.6 mph - N/A   Clear
2:36 PM 3.2 °F -6.2 °F 3.2 °F 100% 29.58 in 10.0 mi WNW 4.6 mph - N/A   Clear
2:56 PM 3.2 °F -7.8 °F -11.2 °F 51% 29.59 in 10.0 mi WNW 5.8 mph - N/A   Scattered Clouds
3:16 PM 3.2 °F -4.2 °F -9.4 °F 56% 29.59 in 10.0 mi NW 3.5 mph - N/A   Mostly Cloudy
3:36 PM 5.0 °F -4.1 °F 5.0 °F 100% 29.59 in 10.0 mi WNW 4.6 mph - N/A   Scattered Clouds
3:56 PM 5.0 °F -4.1 °F 3.2 °F 92% 29.59 in 10.0 mi WNW 4.6 mph - N/A   Overcast
4:16 PM 6.8 °F -2.0 °F -5.8 °F 56% 29.59 in 10.0 mi NW 4.6 mph - N/A   Overcast
4:36 PM 6.8 °F -0.1 °F -7.6 °F 52% 29.60 in 10.0 mi WNW 3.5 mph - N/A   Overcast
4:56 PM 5.0 °F -2.1 °F 1.4 °F 85% 29.61 in 10.0 mi WNW 3.5 mph - N/A   Overcast
5:16 PM 6.8 °F -2.0 °F 6.8 °F 100% 29.61 in 9.0 mi NW 4.6 mph - N/A   Overcast
5:36 PM 6.8 °F -3.5 °F 3.2 °F 85% 29.62 in 8.0 mi NW 5.8 mph - N/A   Overcast
5:56 PM 6.8 °F -4.8 °F -7.6 °F 52% 29.63 in 8.0 mi NW 6.9 mph - N/A   Overcast
6:16 PM 6.8 °F -4.8 °F -9.4 °F 48% 29.64 in 10.0 mi NNW 6.9 mph - N/A   Overcast
6:36 PM 6.8 °F -4.8 °F -0.4 °F 72% 29.65 in 10.0 mi NNW 6.9 mph - N/A   Overcast
6:56 PM 5.0 °F -8.1 °F - N/A% 29.66 in 10.0 mi NNW 8.1 mph - N/A   Overcast
7:16 PM 3.2 °F -11.3 °F -7.6 °F 61% 29.67 in 10.0 mi North 9.2 mph - N/A   Overcast
7:36 PM 3.2 °F -11.3 °F -14.8 °F 43% 29.69 in 10.0 mi North 9.2 mph - N/A   Overcast
7:56 PM 1.4 °F -12.5 °F - N/A% 29.69 in 10.0 mi North 8.1 mph - N/A   Overcast
8:16 PM 1.4 °F -12.5 °F -16.6 °F 43% 29.70 in 10.0 mi NNE 8.1 mph - N/A   Overcast
8:36 PM 1.4 °F -9.9 °F -5.8 °F 72% 29.71 in 10.0 mi North 5.8 mph - N/A   Overcast
8:56 PM 1.4 °F -14.5 °F -4.0 °F 78% 29.72 in 10.0 mi North 10.4 mph - N/A   Overcast
9:16 PM 1.4 °F -13.5 °F -18.4 °F 39% 29.73 in 10.0 mi NNW 9.2 mph - N/A   Overcast
9:36 PM 1.4 °F -11.3 °F 1.4 °F 100% 29.75 in 10.0 mi NNW 6.9 mph - N/A   Overcast
9:56 PM 1.4 °F -12.5 °F -5.8 °F 72% 29.76 in 10.0 mi North 8.1 mph - N/A   Overcast
10:16 PM -0.4 °F -16.7 °F -18.4 °F 43% 29.77 in 10.0 mi North 10.4 mph - N/A   Overcast
10:36 PM -0.4 °F -13.4 °F -0.4 °F 100% 29.78 in 10.0 mi North 6.9 mph - N/A   Overcast
10:56 PM -2.2 °F -15.6 °F -23.8 °F 35% 29.79 in 10.0 mi North 6.9 mph - N/A   Mostly Cloudy
11:16 PM -2.2 °F -14.2 °F - N/A% 29.80 in 10.0 mi North 5.8 mph - N/A   Overcast
11:36 PM -2.2 °F -15.6 °F -25.6 °F 32% 29.81 in 10.0 mi North 6.9 mph - N/A   Overcast
11:56 PM -4.0 °F -19.0 °F - N/A% 29.82 in 10.0 mi North 8.1 mph - N/A   Overcast